Hourly Data Report for October 09, 2019

QUALICUM BEACH AIRPORT
BRITISH COLUMBIA
Current Station Operator: ECCC - MSC

49°20'14.000" N
124°23'38.000" W
58.20 m
1026562
71766
VOQ

Download Data

Hourly Data (October 2019)
Hourly Data Report for October 9, 2019
TIME
LST
Temp Definition
°C
Dew Point Definition
°C
Rel Hum Definition
%
Precip. Amount Definition
mm

Wind Dir Definition
10's deg

Wind Spd Definition
km/h
Visibility Definition
km
Stn Press Definition
kPa
Hmdx Definition


Wind Chill Definition


Weather Definition


00:00 6.2 -5.4 43 0.0 28 10   101.73     LegendNANA
01:00 5.7 -5.4 45 0.0 29 10   101.78     LegendNANA
02:00 2.7 -3.7 63 0.0 28 7   101.83     LegendNANA
03:00 4.0 -5.0 52 0.0 29 9   101.91     LegendNANA
04:00 2.9 -5.4 54 0.0 29 8   101.97     LegendNANA
05:00 0.8 -3.2 74 0.0 26 5   102.05     LegendNANA
06:00 1.4 -4.0 67 0.0 27 8   102.10     LegendNANA
07:00 1.1 -4.4 67 0.0 26 6   102.19     LegendNANA
08:00 5.6 -4.7 47 0.0 28 7   102.25     LegendNANA
09:00 7.2 -5.4 40 0.0 31 13   102.32     LegendNANA
10:00 8.4 -2.3 47 0.0 31 10   102.34     LegendNANA
11:00 8.9 -2.1 46 0.0 32 10   102.37     LegendNANA
12:00 9.7 -2.5 42 0.0 33 8   102.37     LegendNANA
13:00 10.2 -2.0 43 0.0 34 8   102.34     LegendNANA
14:00 10.2 -3.4 38 0.0 35 8   102.33     LegendNANA
15:00 10.0 -4.8 35 0.0 36 5   102.32     LegendNANA
16:00 10.3 -4.7 35 0.0 2 4   102.33     LegendNANA
17:00 9.4 -4.3 38 0.0 35 2   102.35     LegendNANA
18:00 5.0 -1.4 63 0.0 26 3   102.38     LegendNANA
19:00 2.9 -1.0 75 0.0   0   102.40     LegendNANA
20:00 1.8 -0.7 83 0.0   0   102.42     LegendNANA
21:00 0.8 -1.4 85 0.0   0   102.47     LegendNANA
22:00 -0.1 -1.9 88 0.0   0   102.48     LegendNANA
23:00 -0.1 -2.5 84 0.0 25 2   102.50   -1 LegendNANA

Notes on Data Quality.

Legend

  • E = Estimated
  • M = Missing
  • NA = Not Available*
  • [empty] = Indicates an unobserved value
Date modified: